Visibility
15.0 15.0 15.0 15.0 15.0 15.0 15.0 15.0 15.0 15.0 15.0 15.0 15.0 15.0 15.0 15.0 15.0 5.6 13.3 12.3 15.0 3.0 6.1 3.5 13.6 15.0 15.0 15.0 15.0 15.0 15.0 15.0 15.0 15.0 15.0 15.0 15.0 15.0 15.0 15.0 15.0 15.0 15.0
15.0 15.0 15.0 15.0 15.0 15.0 15.0 15.0 15.0 15.0 15.0 15.0 15.0 15.0 15.0 6.8 15.0 15.0 5.3 6.0 15.0 8.4 13.3 10.9 2.0 15.0 15.0 15.0 15.0 15.0 15.0 15.0 15.0 15.0 15.0 15.0 15.0 15.0 15.0 15.0 15.0 15.0 15.0
15.0 15.0 15.0 15.0 15.0 15.0 15.0 9.2 14.4 15.0 15.0 15.0 15.0 15.0 15.0 15.0 8.6 3.7 6.3 15.0 0.2 1.2 15.0 3.5 3.7 2.3 15.0 15.0 15.0 15.0 15.0 15.0 15.0 15.0 15.0 15.0 15.0 15.0 15.0 15.0 15.0 15.0 15.0
15.0 15.0 15.0 15.0 15.0 15.0 15.0 14.8 15.0 8.0 15.0 15.0 15.0 15.0 15.0 15.0 15.0 15.0 15.0 13.3 3.9 15.0 0.4 15.0 3.1 3.0 6.9 15.0 15.0 15.0 15.0 15.0 15.0 15.0 15.0 15.0 15.0 15.0 15.0 15.0 15.0 15.0 15.0
15.0 15.0 15.0 15.0 15.0 15.0 15.0 15.0 15.0 15.0 15.0 15.0 15.0 15.0 15.0 15.0 15.0 15.0 15.0 15.0 8.1 6.7 12.1 8.3 15.0 4.0 8.3 6.3 15.0 15.0 15.0 15.0 15.0 15.0 15.0 15.0 15.0 15.0 15.0 15.0 15.0 15.0 15.0
15.0 15.0 15.0 15.0 15.0 15.0 15.0 15.0 15.0 15.0 15.0 15.0 15.0 15.0 15.0 15.0 15.0 15.0 15.0 8.8 6.3 9.7 4.5 14.1 14.5 9.4 14.8 13.5 10.3 15.0 15.0 15.0 15.0 15.0 15.0 15.0 15.0 15.0 15.0 15.0 15.0 15.0 15.0
15.0 15.0 15.0 15.0 15.0 15.0 15.0 15.0 15.0 15.0 15.0 15.0 15.0 15.0 15.0 15.0 15.0 15.0 15.0 15.0 15.0 15.0 9.1 6.2 9.3 15.0 12.7 15.0 12.2 15.0 15.0 15.0 15.0 15.0 15.0 15.0 15.0 15.0 15.0 15.0 15.0 15.0 15.0
15.0 15.0 15.0 15.0 15.0 15.0 15.0 15.0 15.0 15.0 15.0 15.0 15.0 15.0 15.0 15.0 15.0 15.0 15.0 15.0 15.0 12.4 13.5 5.1 12.7 15.0 11.2 13.9 15.0 15.0 15.0 15.0 15.0 15.0 15.0 15.0 15.0 15.0 15.0 15.0 15.0 15.0 15.0
15.0 15.0 15.0 15.0 15.0 15.0 15.0 15.0 15.0 15.0 15.0 15.0 15.0 15.0 15.0 15.0 15.0 15.0 15.0 15.0 15.0 9.8 11.9 14.1 15.0 15.0 13.8 15.0 15.0 15.0 15.0 15.0 15.0 15.0 15.0 15.0 15.0 15.0 15.0 15.0 15.0 15.0 15.0
15.0 15.0 15.0 15.0 15.0 15.0 15.0 15.0 15.0 15.0 15.0 15.0 15.0 15.0 15.0 15.0 15.0 15.0 15.0 15.0 15.0 15.0 10.8 15.0 15.0 15.0 15.0 15.0 15.0 15.0 15.0 15.0 15.0 15.0 14.9 15.0 15.0 15.0 15.0 15.0 15.0 15.0 15.0
15.0 15.0 15.0 15.0 15.0 15.0 15.0 15.0 15.0 15.0 15.0 15.0 15.0 15.0 15.0 15.0 15.0 15.0 15.0 15.0 14.0 15.0 15.0 15.0 15.0 15.0 15.0 15.0 15.0 8.5 15.0 15.0 15.0 15.0 14.9 15.0 15.0 15.0 15.0 15.0 15.0 15.0 15.0
15.0 15.0 15.0 15.0 15.0 15.0 15.0 15.0 15.0 15.0 15.0 15.0 15.0 15.0 15.0 15.0 15.0 15.0 15.0 15.0 15.0 15.0 15.0 15.0 15.0 15.0 14.8 11.0 14.2 15.0 15.0 15.0 15.0 15.0 15.0 15.0 14.3 15.0 15.0 15.0 15.0 15.0 15.0
15.0 15.0 15.0 15.0 15.0 15.0 15.0 15.0 15.0 15.0 15.0 15.0 15.0 15.0 15.0 15.0 15.0 15.0 15.0 15.0 15.0 15.0 15.0 15.0 15.0 15.0 15.0 13.3 9.0 15.0 15.0 15.0 15.0 15.0 15.0 15.0 15.0 15.0 15.0 15.0 15.0 15.0 15.0
15.0 15.0 15.0 15.0 15.0 15.0 15.0 15.0 15.0 15.0 15.0 15.0 15.0 15.0 15.0 15.0 15.0 15.0 15.0 14.4 9.4 15.0 15.0 15.0 15.0 15.0 15.0 15.0 15.0 15.0 15.0 15.0 15.0 15.0 15.0 15.0 15.0 15.0 15.0 15.0 15.0 15.0 15.0
15.0 15.0 13.8 13.4 15.0 15.0 7.7 14.3 15.0 15.0 15.0 15.0 15.0 10.9 15.0 15.0 15.0 15.0 10.4 14.9 15.0 15.0 2.3 15.0 15.0 15.0 15.0 15.0 15.0 15.0 15.0 15.0 15.0 15.0 15.0 15.0 15.0 15.0 15.0 15.0 15.0 15.0 15.0
8.5 15.0 11.0 11.6 3.5 15.0 15.0 2.2 14.3 9.2 3.9 15.0 15.0 15.0 15.0 15.0 15.0 15.0 12.0 15.0 15.0 14.8 9.6 15.0 15.0 15.0 13.0 8.5 15.0 15.0 14.8 15.0 15.0 15.0 15.0 15.0 15.0 15.0 15.0 15.0 15.0 15.0 15.0
5.1 11.6 8.2 10.8 15.0 15.0 6.2 1.2 3.2 9.5 12.1 15.0 15.0 15.0 15.0 15.0 15.0 15.0 14.9 11.3 15.0 15.0 0.1 15.0 15.0 15.0 15.0 10.0 6.1 11.0 7.5 15.0 7.7 10.3 15.0 15.0 15.0 15.0 15.0 15.0 15.0 15.0 15.0
15.0 15.0 4.1 15.0 15.0 15.0 15.0 1.1 0.5 4.7 15.0 15.0 15.0 5.1 15.0 15.0 15.0 15.0 15.0 15.0 15.0 15.0 6.6 0.1 15.0 15.0 15.0 9.4 14.4 9.3 6.2 15.0 15.0 1.4 15.0 15.0 15.0 15.0 15.0 15.0 15.0 15.0 15.0
15.0 9.1 6.2 5.9 13.5 15.0 15.0 15.0 14.9 11.8 15.0 9.0 15.0 13.3 13.8 15.0 15.0 15.0 15.0 15.0 12.8 14.6 15.0 2.0 14.4 15.0 15.0 15.0 5.1 15.0 4.4 13.8 11.3 0.4 0.3 11.5 15.0 15.0 15.0 15.0 15.0 15.0 15.0
15.0 15.0 15.0 15.0 14.5 10.2 14.1 10.6 1.2 6.7 11.4 13.9 15.0 15.0 9.8 15.0 15.0 15.0 15.0 15.0 14.9 15.0 9.5 0.6 15.0 15.0 15.0 15.0 7.9 1.2 0.1 3.0 9.7 15.0 0.3 8.3 4.2 9.1 13.2 15.0 15.0 15.0 15.0
15.0 15.0 15.0 15.0 15.0 15.0 15.0 15.0 15.0 15.0 0.6 12.3 13.1 9.6 11.5 6.5 3.7 8.0 13.5 15.0 15.0 7.8 0.5 0.2 15.0 15.0 0.9 0.1 0.2 8.6 8.4 1.9 4.1 8.5 0.4 1.2 11.6 6.8 0.3 15.0 15.0 15.0 15.0
15.0 15.0 15.0 15.0 15.0 15.0 10.6 15.0 0.7 14.6 12.6 0.7 0.8 9.7 5.0 0.1 0.2 0.0 0.0 0.1 0.2 14.8 0.7 2.2 15.0 15.0 15.0 15.0 15.0 5.7 7.6 0.1 0.1 8.2 0.8 0.0 10.4 0.2 3.2 15.0 15.0 15.0 15.0
15.0 15.0 15.0 15.0 15.0 15.0 13.3 14.3 15.0 15.0 14.9 11.1 8.4 0.9 1.8 0.7 0.1 0.2 0.1 0.2 0.4 0.5 0.1 11.4 15.0 15.0 15.0 15.0 15.0 15.0 12.5 13.7 14.9 0.2 4.6 0.1 1.0 0.0 0.9 15.0 14.4 6.9 13.6
14.3 15.0 15.0 15.0 15.0 15.0 15.0 15.0 15.0 15.0 15.0 15.0 15.0 14.3 4.3 8.4 0.7 0.1 0.4 0.1 0.1 0.1 0.1 0.2 0.1 0.0 0.1 0.1 14.3 15.0 15.0 0.2 0.2 0.2 6.3 0.2 0.2 0.1 0.1 1.1 5.6 15.0 8.4
6.5 1.2 0.3 4.7 5.0 15.0 15.0 15.0 15.0 15.0 15.0 15.0 14.4 6.6 8.1 5.5 5.1 7.3 2.3 0.1 0.1 0.1 5.8 13.0 5.5 6.2 11.9 11.7 1.1 0.1 0.1 0.1 0.1 0.1 0.1 14.1 0.3 0.1 0.1 0.1 0.1 3.8 7.3
1.1 6.3 14.0 5.6 12.4 2.3 12.5 15.0 11.4 11.3 11.0 15.0 3.9 1.0 2.4 0.3 1.2 12.9 6.7 3.4 13.7 0.2 10.1 15.0 14.1 10.5 3.9 3.2 0.6 0.6 0.1 0.1 0.1 0.1 0.1 2.7 0.4 0.5 0.5 0.3 0.4 0.5 0.5